Location: Southlake
(32.9412°N, 97.1342°W)
Time: 02:10:04
(UTC+00:00)

SL-27 R/B - Pass Details

Date: 03 December 2021
Orbit: 415 x 464 km, 74.7° (Epoch: 17 January)

Event Time Altitude Azimuth Distance (km) Brightness Sun altitude
Rises 12:28:02 0° 356° (N) 2,501 5.9 -9.9°
Reaches altitude 10° 12:30:20 10° 8° (N) 1,617 5.1 -9.5°
Maximum altitude 12:33:29 29° 70° (ENE) 872 4.4 -8.9°
Drops below altitude 10° 12:36:35 10° 132° (SE) 1,590 6.5 -8.3°
Sets 12:38:49 0° 144° (SE) 2,450 7.2 -7.8°
